TimeCST,TemperatureF,Dew PointF,Humidity,Sea Level PressureIn,VisibilityMPH,Wind Direction,Wind SpeedMPH,Gust SpeedMPH,PrecipitationIn,Events,Conditions,WindDirDegrees,DateUTC
12:54 AM,45.0,37.9,76,30.00,10.0,WSW,9.2,-,N/A,,Clear,240,2013-11-18 06:54:00
1:54 AM,46.0,37.9,73,30.02,10.0,West,6.9,-,N/A,,Clear,270,2013-11-18 07:54:00
2:54 AM,45.0,37.9,76,30.02,10.0,West,6.9,-,N/A,,Clear,270,2013-11-18 08:54:00
3:54 AM,39.0,35.1,86,30.04,10.0,WNW,6.9,-,N/A,,Clear,290,2013-11-18 09:54:00
4:54 AM,42.1,37.9,85,30.06,10.0,WNW,5.8,-,N/A,,Clear,290,2013-11-18 10:54:00
5:54 AM,42.1,37.0,82,30.08,10.0,West,8.1,-,N/A,,Clear,280,2013-11-18 11:54:00
6:54 AM,41.0,37.0,86,30.12,10.0,West,11.5,-,N/A,,Clear,280,2013-11-18 12:54:00
7:54 AM,43.0,37.0,80,30.14,10.0,West,12.7,-,N/A,,Clear,280,2013-11-18 13:54:00
8:54 AM,45.0,37.0,74,30.17,10.0,West,15.0,-,N/A,,Clear,270,2013-11-18 14:54:00
9:54 AM,48.9,34.0,56,30.20,10.0,WNW,17.3,-,N/A,,Clear,300,2013-11-18 15:54:00
10:54 AM,51.1,32.0,48,30.21,10.0,WNW,19.6,-,N/A,,Clear,300,2013-11-18 16:54:00
11:54 AM,53.1,30.0,41,30.21,10.0,WNW,19.6,-,N/A,,Clear,290,2013-11-18 17:54:00
12:54 PM,55.0,28.0,35,30.20,10.0,NW,17.3,25.3,N/A,,Clear,310,2013-11-18 18:54:00
1:54 PM,55.9,26.1,32,30.20,10.0,WNW,19.6,24.2,N/A,,Clear,290,2013-11-18 19:54:00
2:54 PM,55.0,24.1,30,30.21,10.0,NNW,11.5,20.7,N/A,,Clear,330,2013-11-18 20:54:00
3:54 PM,54.0,23.0,30,30.22,10.0,NW,12.7,-,N/A,,Clear,320,2013-11-18 21:54:00
4:54 PM,50.0,25.0,38,30.23,10.0,NNW,8.1,-,N/A,,Clear,330,2013-11-18 22:54:00
5:54 PM,46.0,25.0,44,30.25,10.0,NNW,6.9,-,N/A,,Clear,340,2013-11-18 23:54:00
6:54 PM,42.1,26.1,53,30.27,10.0,Calm,Calm,-,N/A,,Clear,0,2013-11-19 00:54:00
7:54 PM,42.1,33.1,70,30.28,10.0,Calm,Calm,-,N/A,,Clear,0,2013-11-19 01:54:00
8:54 PM,37.9,28.9,70,30.29,10.0,Calm,Calm,-,N/A,,Clear,0,2013-11-19 02:54:00
9:54 PM,34.0,28.0,79,30.30,10.0,WSW,3.5,-,N/A,,Clear,240,2013-11-19 03:54:00
10:54 PM,30.9,25.0,79,30.31,10.0,West,4.6,-,N/A,,Unknown,260,2013-11-19 04:54:00
11:54 PM,30.9,27.0,85,30.31,10.0,Calm,Calm,-,N/A,,Clear,0,2013-11-19 05:54:00